CZ-6A DEB, 60669

Orbit data source: Space-Track

CZ-6A DEB, 60669 is space debris in LEO originally from a launch on Tue, 06 Aug 2024 UTC launched from the Taiyaun Space Center, China (TSC). Debris objects in space refer to the collection of defunct objects orbiting the Earth. Examples of debris include non-operational satellites, rocket bodies, and fragments generated from explosions, collisions, or faulty payload assembly.

Loading next visibility...
Identifier
60669, 2024-140BW
Orbit
LEO
Country
Flag of CNCN / PRC
Related business
Manufacturer
SAST
Mission
Spacecraft
Bus & Motor
Unknown
Mass
Unknown
Launch date (UTC)
2024-08-06 (2 years ago)
Launch vehicle
Unknown
Launch site
Taiyaun Space Center, China (TSC)
Object type
Payload
Rocket body
Debris
Shape & HBR
Unknown shape, 0.6 m
Radar Cross Section
Medium (>0.1 m² and <1 m²)

Expand to show TLE details & history
Last TLE update: 14 hours ago

TLE from 14 hours ago
0 CZ-6A DEB
1 60669U 24140BW  26171.24657361  .00000804  00000-0  20754-3 0  9992
2 60669  88.9262 265.0621 0121006 333.8478  25.6644 14.44760736 98109
Epoch: 2026-06-20T05:55Z
TLE epoch observation values (Epoch: 2026-06-20T05:55:03.959Z)
Latitude
-0.00007°
Longitude
-92.16834°
Altitude
668.416 km
Speed
7.564 km/s
True Right ascension
17h 40m 14s
True Declination
0° 00' 00"
Sunlit
Object was in full shadow at epoch
Visualization orbit readout
Latitude
Unknown
Longitude
Unknown
Altitude
Unknown
Speed
Unknown
Apparent Right ascension
Unknown
Apparent Declination
Unknown
Sunlit
N/A
Visualization observer readout
Local Sidereal Time
07:19:33
Azimuth
Unknown
Elevation
Unknown
Doppler factor
Unknown
Orbital elements
Apogee altitude
825.858 km
Perigee altitude
653.597 km
Semi-major axis
7,117.865 km
Eccentricity
0.0121
Inclination
88.9262°
RAAN
265.0621°
Arg. of periapsis
333.8478°
True anomaly
26.27323°
Mean anomaly
25.6644°
Eccentric anomaly
25.96798°
Mean motion
3.61425 °/min
Orbital period
99.61 mins
BSTAR
0.00020754
Loading maneuver chart data...
Computing Atmospheric mass density...
Loading historical data...
Loading historical data...
Loading historical data...
Loading historical data...
Loading historical data...
Loading historical data...
Loading historical data...

Documentation

Showing up to 5 results
|